Powrót do katalogu

GO-32

TECHSAT 1B

AktywnyKrótkofalarstwoSSO
NORAD 25397·PAYLOAD·🇮🇱 Israel

Wystrzelony Jul 10, 1998 z Baikonur Cosmodrome

Loading…

Następne Przeloty (najbliższe 24 godziny)

TLE

ŚwieżeSource: Space-Track

Epoka: Sep 14, 2026, 09:54 UTC

1 25397U 98043D   26257.41299807  .00000025  00000-0  30886-4 0  9998
2 25397  99.0152 252.4556 0001057  13.7115 346.4091 14.24442711464038

Śledź GO-32 w czasie rzeczywistym z AllMySat

Download on the App Store